Location: Recife
(8.0585°S, 34.8848°W)
Time: 07:10:08
(UTC-03:00)

Vanguard 3 - Pass Details

Date: 19 April 2026
Orbit: 507 x 3205 km, 33.4° (Epoch: 13 May)

Event Time Altitude Azimuth Distance (km) Brightness Sun altitude
Rises 07:08:45 0° 289° (WNW) 4,278 10.4 24.9°
Reaches altitude 10° 07:11:12 10° 284° (WNW) 3,592 10.1 25.5°
Maximum altitude 07:20:54 58° 207° (SSW) 2,407 9.7 27.8°
Drops below altitude 10° 07:37:23 10° 132° (SE) 5,819 12.0 31.7°
Sets 07:42:39 0° 128° (SE) 7,040 12.3 32.9°
